GOSAT 2 (43672 NORAD) Tracking and Keplerian Element Data

This shows tracking and keplerian element data for the satellite.

Feedback or suggestion? Click here.




ElementValue
Catalog43672
NameGOSAT 2
Epoch Orbit326
Epoch Day324.16250828
Epoch Year2018
RAAN74.3956
Inclination97.8269
Eccentricity0.0001259
Argument of Perigee113.3584
Mean Anonmoly246.9735
Mean Motion14.84387048
Decay Rate0.00027675
L11 43672U 18084B 18324.16250828 .00027675 00000-0 32877-2 0 9999
L22 43672 97.8269 74.3956 0001259 113.3584 246.9735 14.84387048 3265

Live tracking and technical data element details for GOSAT 2 (NORAD 43672). GOSAT 2 can be tracked NOW for your location showing map with azimuth and elevation plus other details from your city location.

Track the satellite on the map from your city or location and see movement details for azimuth, elevation, latitude, longitude, range, height, and movement on the map or in text.







IsCatalogInMostPopularTable: catalog: 43672, numindb: 10
Update: records affected: 1



GetName: 43672 GOSAT 2

Hit Count: updated at: Tue, 20 Nov 2018 11:14:47 GMT